Weather History for KUAO - December, 2013

Change the Weather History Date:

Friday, December 13, 2013

  Actual Average Record
Temperature  
Mean Temperature 41 °F -  
Max Temperature 48 °F - 59 °F (2010)
Min Temperature 36 °F - 23 °F (2011)
Degree Days  
Heating Degree Days 23    
Month to date heating degree days 443  
Since 1 July heating degree days 1561  
Cooling Degree Days 0    
Month to date cooling degree days 0  
Year to date cooling degree days 426  
Moisture  
Dew Point 40 °F    
Average Humidity 95    
Maximum Humidity 100    
Minimum Humidity 89    
Precipitation  
Precipitation 0.02 in - 1.75 in (2003)
Month to date precipitation 1.62  
Year to date precipitation 26.87  
Sea Level Pressure  
Sea Level Pressure 30.37 in    
Wind  
Wind Speed 2 mph (WNW)    
Max Wind Speed 7 mph    
Max Gust Speed 8 mph    
Visibility 3 miles    
Events Fog , Rain    
T = Trace of Precipitation, MM = Missing Value Source: NWS Daily Summary

Daily Weather History Graph

Daily Weather History Graph

Search for Another Location

Airport or City:

Trip Planner

Search our weather history database for the weather conditions in past years. The results will help you decide how hot, cold, wet, or windy it might be!

Date:

Astronomy

Dec. 13, 2013 Rise Set
Actual Time 7:42 AM PST 4:28 PM PST
Civil Twilight 7:08 AM PST 5:02 PM PST
Nautical Twilight 6:30 AM PST 5:40 PM PST
Astronomical Twilight 5:54 AM PST 6:15 PM PST
Moon 2:21 PM PST (12/13) 4:03 AM PST (12/13)
Length of Visible Light 9h 54m
Length of Day
8h 46m
Waxing Gibbous, 88% of the Moon is Illuminated
Dec 13
Waxing Gibbous
Dec 17
Full
Dec 25
Last Quarter
Jan 1
New
Jan 7
First Quarter

Hourly Weather History & Observations

Time (PST) Temp. Windchill Dew Point Humidity Pressure Visibility Wind Dir Wind Speed Gust Speed Precip Events Conditions
12:34 AM 36.0 °F - 35.1 °F 97% 30.24 in - Calm Calm - 0.01 in Rain Light Rain
12:46 AM 36.0 °F - 36.0 °F 100% 30.23 in - Calm Calm - 0.01 in Rain Light Rain
12:53 AM 36.0 °F - 36.0 °F 100% 30.24 in - Calm Calm - 0.02 in Rain Light Rain
1:07 AM 37.0 °F - 36.0 °F 96% 30.24 in - Calm Calm - 0.00 in Rain Light Rain
1:29 AM 36.0 °F - 36.0 °F 100% 30.24 in - Calm Calm - 0.00 in   Overcast
1:53 AM 36.0 °F - 36.0 °F 100% 30.26 in - Calm Calm - 0.00 in   Overcast
2:53 AM 37.0 °F - 37.0 °F 100% 30.28 in - Calm Calm - 0.01 in   Overcast
3:30 AM 37.9 °F - 37.9 °F 100% 30.28 in - Calm Calm - N/A   Overcast
3:48 AM 37.4 °F - 37.4 °F 100% 30.28 in - Calm Calm - N/A   Overcast
3:53 AM 37.9 °F - 37.9 °F 100% 30.29 in - Calm Calm - N/A   Overcast
4:53 AM 39.9 °F - 39.0 °F 97% 30.30 in - Calm Calm - N/A   Overcast
5:11 AM 39.0 °F - 39.0 °F 100% 30.30 in - Calm Calm - N/A   Overcast
5:46 AM 39.0 °F - 39.0 °F 100% 30.31 in - Calm Calm - N/A   Overcast
5:53 AM 39.9 °F 37.8 °F 39.0 °F 97% 30.32 in - WSW 3.5 mph - N/A   Overcast
6:23 AM 41.0 °F 38.0 °F 41.0 °F 100% 30.31 in - SW 4.6 mph - N/A   Overcast
6:53 AM 41.0 °F 37.1 °F 39.9 °F 96% 30.34 in - SW 5.8 mph - N/A   Overcast
7:53 AM 41.0 °F 38.0 °F 39.9 °F 96% 30.35 in - SW 4.6 mph - N/A   Overcast
8:53 AM 42.1 °F 40.2 °F 41.0 °F 96% 30.37 in - Variable 3.5 mph - N/A   Overcast
9:53 AM 43.0 °F 41.3 °F 42.1 °F 97% 30.40 in - Variable 3.5 mph - N/A   Overcast
10:53 AM 44.1 °F - 43.0 °F 96% 30.42 in - Calm Calm - N/A   Overcast
11:53 AM 45.0 °F 43.5 °F 43.0 °F 93% 30.41 in - South 3.5 mph - N/A   Overcast
12:53 PM 46.9 °F - 45.0 °F 93% 30.41 in - South 4.6 mph - N/A   Overcast
1:53 PM 46.9 °F - 45.0 °F 93% 30.42 in 9.0 mi SSW 3.5 mph - N/A   Overcast
2:16 PM 46.9 °F - 45.0 °F 93% 30.42 in 5.0 mi Calm Calm - N/A   Overcast
2:53 PM 46.9 °F - 45.0 °F 93% 30.42 in 10.0 mi Calm Calm - N/A   Overcast
3:53 PM 46.9 °F - 44.1 °F 90% 30.44 in 10.0 mi Calm Calm - N/A   Overcast
4:53 PM 43.0 °F 41.3 °F 41.0 °F 93% 30.44 in 6.0 mi North 3.5 mph - N/A   Overcast
5:53 PM 42.1 °F - 39.9 °F 92% 30.43 in 5.0 mi Calm Calm - N/A   Overcast
6:04 PM 41.0 °F - 41.0 °F 100% 30.42 in 5.0 mi Calm Calm - N/A   Mostly Cloudy
6:12 PM 39.9 °F - 39.9 °F 100% 30.41 in 3.0 mi Calm Calm - N/A   Mostly Cloudy
6:17 PM 39.0 °F - 37.9 °F 96% 30.41 in 2.5 mi Calm Calm - N/A   Mostly Cloudy
6:22 PM 39.0 °F - 37.9 °F 96% 30.41 in 0.8 mi Calm Calm - N/A   Mostly Cloudy
6:30 PM 39.9 °F - 39.0 °F 97% 30.41 in 0.5 mi Calm Calm - N/A Fog Fog
6:48 PM 39.2 °F 37.0 °F 39.2 °F 100% 30.41 in 1.8 mi NNW 3.5 mph - N/A   Overcast
6:53 PM 39.9 °F 37.8 °F 39.0 °F 97% 30.42 in 0.8 mi NW 3.5 mph - N/A   Mist
7:05 PM 39.9 °F 37.8 °F 39.9 °F 100% 30.42 in 2.0 mi NNW 3.5 mph - N/A   Overcast
7:19 PM 39.9 °F 37.8 °F 39.9 °F 100% 30.43 in 1.0 mi NW 3.5 mph - N/A   Mist
7:39 PM 39.9 °F 36.7 °F 39.9 °F 100% 30.44 in 0.5 mi NNW 4.6 mph - N/A Fog Fog
7:46 PM 39.9 °F 36.7 °F 39.9 °F 100% 30.44 in 0.2 mi NNW 4.6 mph - N/A Fog Fog
7:53 PM 39.9 °F 35.1 °F 39.9 °F 100% 30.44 in 0.2 mi North 6.9 mph - N/A Fog Fog
8:53 PM 39.9 °F 36.7 °F 39.9 °F 100% 30.46 in 0.2 mi North 4.6 mph - N/A Fog Fog
9:53 PM 39.9 °F 37.8 °F 39.9 °F 100% 30.45 in 0.2 mi North 3.5 mph - N/A Fog Fog
10:53 PM 39.9 °F 37.8 °F 39.9 °F 100% 30.45 in 0.2 mi NNW 3.5 mph - N/A Fog Fog
11:53 PM 39.9 °F - 39.9 °F 100% 30.46 in 0.2 mi Calm Calm - N/A Fog Fog